Hourly Weather Bolshie Yakovchicy

Today, 20 June, Sunday

Time Temperature Precipitation Wind Pressure Humidity
00:00 +19°C° 0 mm 2 mps 750 mmHg 88%
01:00 +19°C° 0 mm 2 mps 750 mmHg 89%
02:00 +19°C° 0 mm 1 mps 750 mmHg 91%
03:00 +18°C° 0 mm 2 mps 750 mmHg 91%
04:00 +18°C° 0 mm 2 mps 750 mmHg 91%
05:00 +18°C° 0 mm 2 mps 750 mmHg 91%
06:00 +20°C° 0 mm 2 mps 750 mmHg 86%
07:00 +22°C° 0 mm 3 mps 750 mmHg 80%
08:00 +24°C° 0 mm 3 mps 750 mmHg 75%
09:00 +25°C° 0 mm 4 mps 750 mmHg 72%
10:00 +27°C° 0 mm 5 mps 750 mmHg 68%
11:00 +28°C° 0 mm 5 mps 750 mmHg 65%
12:00 +28°C° 0.3 mm 5 mps 749 mmHg 65%
13:00 +28°C° 0.3 mm 5 mps 749 mmHg 64%
14:00 +28°C° 0.3 mm 4 mps 749 mmHg 63%
15:00 +28°C° 0.4 mm 4 mps 748 mmHg 66%
16:00 +28°C° 0.4 mm 3 mps 748 mmHg 68%
17:00 +28°C° 0.4 mm 2 mps 748 mmHg 70%
18:00 +27°C° 0.1 mm 3 mps 748 mmHg 74%
19:00 +26°C° 0.1 mm 3 mps 748 mmHg 77%
20:00 +25°C° 0.1 mm 3 mps 747 mmHg 81%
21:00 +24°C° 0 mm 3 mps 747 mmHg 82%
22:00 +22°C° 0 mm 3 mps 747 mmHg 84%
23:00 +21°C° 0 mm 3 mps 747 mmHg 85%

Tomorrow, 21 June, Monday

Time Temperature Precipitation Wind Pressure Humidity
00:00 +20°C° 0 mm 3 mps 747 mmHg 87%
01:00 +20°C° 0 mm 3 mps 747 mmHg 89%
02:00 +19°C° 0 mm 2 mps 747 mmHg 91%
03:00 +19°C° 0 mm 2 mps 747 mmHg 92%
04:00 +18°C° 0 mm 3 mps 747 mmHg 93%
05:00 +18°C° 0 mm 3 mps 747 mmHg 93%
06:00 +20°C° 0 mm 3 mps 747 mmHg 88%
07:00 +21°C° 0 mm 4 mps 747 mmHg 83%
08:00 +23°C° 0 mm 4 mps 747 mmHg 78%
09:00 +25°C° 0 mm 5 mps 747 mmHg 73%
10:00 +26°C° 0 mm 5 mps 747 mmHg 68%
11:00 +27°C° 0 mm 5 mps 746 mmHg 63%
12:00 +27°C° 0.1 mm 5 mps 746 mmHg 63%
13:00 +27°C° 0.1 mm 5 mps 746 mmHg 62%
14:00 +28°C° 0.1 mm 5 mps 746 mmHg 62%
15:00 +28°C° 0.1 mm 4 mps 746 mmHg 62%
16:00 +28°C° 0.1 mm 4 mps 745 mmHg 62%
17:00 +28°C° 0.1 mm 3 mps 745 mmHg 62%
18:00 +27°C° 0 mm 3 mps 745 mmHg 68%
19:00 +26°C° 0 mm 3 mps 745 mmHg 73%
20:00 +25°C° 0 mm 3 mps 745 mmHg 79%
21:00 +24°C° 0 mm 3 mps 745 mmHg 82%
22:00 +23°C° 0 mm 2 mps 745 mmHg 85%
23:00 +21°C° 0 mm 2 mps 745 mmHg 89%

Day after tomorrow, 22 June, Tuesday

Time Temperature Precipitation Wind Pressure Humidity
00:00 +20°C° 0 mm 2 mps 745 mmHg 90%
01:00 +20°C° 0 mm 2 mps 745 mmHg 92%
02:00 +19°C° 0 mm 2 mps 745 mmHg 93%
03:00 +19°C° 0 mm 2 mps 745 mmHg 94%
04:00 +19°C° 0 mm 2 mps 745 mmHg 94%
05:00 +19°C° 0 mm 2 mps 745 mmHg 95%
06:00 +21°C° 0 mm 3 mps 745 mmHg 88%
07:00 +23°C° 0 mm 4 mps 746 mmHg 81%
08:00 +25°C° 0 mm 4 mps 746 mmHg 74%
09:00 +27°C° 0 mm 4 mps 746 mmHg 69%
10:00 +28°C° 0 mm 5 mps 746 mmHg 63%
11:00 +29°C° 0 mm 5 mps 746 mmHg 58%
12:00 +30°C° 0 mm 5 mps 746 mmHg 56%
13:00 +30°C° 0 mm 5 mps 746 mmHg 53%
14:00 +32°C° 0 mm 5 mps 746 mmHg 51%
15:00 +32°C° 0 mm 4 mps 746 mmHg 52%
16:00 +32°C° 0 mm 4 mps 746 mmHg 54%
17:00 +31°C° 0 mm 3 mps 746 mmHg 55%
18:00 +29°C° 0.1 mm 3 mps 746 mmHg 61%
19:00 +28°C° 0.1 mm 2 mps 746 mmHg 67%
20:00 +26°C° 0.1 mm 2 mps 747 mmHg 73%
21:00 +26°C° 0 mm 2 mps 747 mmHg 75%
22:00 +25°C° 0 mm 2 mps 747 mmHg 77%
23:00 +24°C° 0 mm 2 mps 747 mmHg 79%

23 June, Wednesday

Time Temperature Precipitation Wind Pressure Humidity
00:00 +23°C° 0 mm 2 mps 747 mmHg 81%
01:00 +23°C° 0 mm 2 mps 747 mmHg 83%
02:00 +22°C° 0 mm 1 mps 747 mmHg 85%
03:00 +22°C° 0 mm 1 mps 747 mmHg 86%
04:00 +21°C° 0 mm 2 mps 747 mmHg 87%
05:00 +21°C° 0 mm 2 mps 747 mmHg 87%
06:00 +24°C° 0 mm 2 mps 747 mmHg 83%
07:00 +25°C° 0 mm 2 mps 748 mmHg 78%
08:00 +27°C° 0 mm 2 mps 748 mmHg 73%
09:00 +28°C° 0 mm 3 mps 748 mmHg 69%
10:00 +29°C° 0 mm 3 mps 748 mmHg 65%
11:00 +31°C° 0 mm 3 mps 748 mmHg 61%
12:00 +31°C° 0 mm 3 mps 748 mmHg 57%
13:00 +33°C° 0 mm 3 mps 748 mmHg 54%
14:00 +34°C° 0 mm 3 mps 748 mmHg 51%
15:00 +34°C° 0 mm 3 mps 748 mmHg 53%
16:00 +34°C° 0 mm 3 mps 748 mmHg 55%
17:00 +34°C° 0 mm 3 mps 748 mmHg 56%
18:00 +31°C° 0.1 mm 3 mps 748 mmHg 62%
19:00 +29°C° 0.1 mm 3 mps 748 mmHg 68%
20:00 +28°C° 0.1 mm 2 mps 748 mmHg 74%
21:00 +27°C° 0.2 mm 2 mps 748 mmHg 78%
22:00 +25°C° 0.2 mm 2 mps 749 mmHg 81%
23:00 +24°C° 0.2 mm 2 mps 749 mmHg 84%

24 June, Thursday

Time Temperature Precipitation Wind Pressure Humidity
00:00 +24°C° 0.1 mm 2 mps 749 mmHg 86%
01:00 +23°C° 0.1 mm 1 mps 749 mmHg 87%
02:00 +23°C° 0.1 mm 1 mps 749 mmHg 89%
03:00 +23°C° 0.1 mm 1 mps 749 mmHg 89%
04:00 +21°C° 0.1 mm 2 mps 749 mmHg 89%
05:00 +21°C° 0.1 mm 2 mps 749 mmHg 90%
06:00 +23°C° 0 mm 2 mps 749 mmHg 84%
07:00 +24°C° 0 mm 2 mps 749 mmHg 78%
08:00 +26°C° 0 mm 1 mps 750 mmHg 73%
09:00 +27°C° 0 mm 1 mps 750 mmHg 69%
10:00 +28°C° 0 mm 2 mps 750 mmHg 66%
11:00 +30°C° 0 mm 2 mps 750 mmHg 62%
12:00 +30°C° 0.1 mm 2 mps 750 mmHg 61%
13:00 +31°C° 0.1 mm 2 mps 750 mmHg 59%
14:00 +32°C° 0.1 mm 2 mps 750 mmHg 58%
15:00 +31°C° 0.5 mm 1 mps 750 mmHg 58%
16:00 +31°C° 0.5 mm 1 mps 749 mmHg 59%
17:00 +31°C° 0.5 mm 1 mps 749 mmHg 59%
18:00 +30°C° 0.3 mm 1 mps 749 mmHg 65%
19:00 +28°C° 0.3 mm 1 mps 749 mmHg 71%
20:00 +27°C° 0.3 mm 1 mps 749 mmHg 78%
21:00 +26°C° 0.2 mm 1 mps 749 mmHg 82%
22:00 +25°C° 0.2 mm 2 mps 749 mmHg 87%
23:00 +23°C° 0.2 mm 2 mps 748 mmHg 91%

25 June, Friday

Time Temperature Precipitation Wind Pressure Humidity
00:00 +23°C° 0 mm 2 mps 748 mmHg 92%
01:00 +21°C° 0 mm 2 mps 748 mmHg 92%
02:00 +21°C° 0 mm 2 mps 747 mmHg 93%
03:00 +21°C° 0.1 mm 2 mps 747 mmHg 93%
04:00 +21°C° 0.1 mm 2 mps 747 mmHg 94%
05:00 +21°C° 0.1 mm 2 mps 747 mmHg 95%
06:00 +23°C° 0.5 mm 2 mps 747 mmHg 91%
07:00 +24°C° 0.5 mm 2 mps 747 mmHg 88%
08:00 +25°C° 0.5 mm 2 mps 747 mmHg 85%
09:00 +27°C° 0 mm 3 mps 747 mmHg 77%
10:00 +29°C° 0 mm 4 mps 747 mmHg 70%
11:00 +32°C° 0 mm 4 mps 747 mmHg 63%
12:00 +32°C° 1.2 mm 5 mps 747 mmHg 63%
13:00 +32°C° 1.2 mm 5 mps 746 mmHg 63%
14:00 +32°C° 1.2 mm 6 mps 746 mmHg 64%
15:00 +30°C° 0.8 mm 6 mps 746 mmHg 66%
16:00 +29°C° 0.8 mm 6 mps 746 mmHg 68%
17:00 +28°C° 0.8 mm 6 mps 746 mmHg 70%
18:00 +27°C° 0 mm 5 mps 747 mmHg 75%
19:00 +25°C° 0 mm 5 mps 747 mmHg 80%
20:00 +23°C° 0 mm 4 mps 748 mmHg 85%
21:00 +22°C° 0 mm 4 mps 748 mmHg 88%
22:00 +21°C° 0 mm 4 mps 748 mmHg 90%
23:00 +20°C° 0 mm 4 mps 748 mmHg 92%
Show more